AHY3465 OEJN-HECA

Flight info

Callsign AHY3465
Flight time 1h 47m
Altitude 36000
Route MIGDA2W/34C MIGDA L677 CVO
Aircraft A320/M-SDE3FGHIRWY/LB1

Departure

Time 2026-05-04 22:49
Airport King Abdulaziz International Airport (OEJN)

Arrival

Time 2026-05-05 00:37
Airport Cairo International Airport (HECA)
Time Latitude Longitude Altitude Speed Heading
2026-05-04 22:16 21.67006 39.16651 33 ft 0 kts 12°
2026-05-04 22:35 21.66988 39.16646 33 ft 4 kts 12°
2026-05-04 22:35 21.66962 39.16640 33 ft 4 kts 11°
2026-05-04 22:36 21.66936 39.16634 33 ft 4 kts 19°
2026-05-04 22:36 21.66913 39.16622 32 ft 4 kts 44°
2026-05-04 22:36 21.66902 39.16602 33 ft 2 kts 98°
2026-05-04 22:36 21.66902 39.16601 30 ft 0 kts 98°
2026-05-04 22:42 21.66902 39.16602 33 ft 1 kts 99°
2026-05-04 22:43 21.66892 39.16669 33 ft 17 kts 99°
2026-05-04 22:43 21.66853 39.16793 32 ft 17 kts 118°
2026-05-04 22:43 21.66784 39.16880 34 ft 15 kts 146°
2026-05-04 22:43 21.66762 39.16890 34 ft 2 kts 159°
2026-05-04 22:44 21.66689 39.16920 34 ft 17 kts 160°
2026-05-04 22:44 21.66580 39.16962 35 ft 16 kts 159°
2026-05-04 22:44 21.66483 39.17002 35 ft 14 kts 159°
2026-05-04 22:44 21.66390 39.17016 36 ft 15 kts 186°
2026-05-04 22:45 21.66306 39.16978 34 ft 10 kts 236°
2026-05-04 22:45 21.66234 39.16777 36 ft 16 kts 246°
2026-05-04 22:45 21.66196 39.16666 36 ft 16 kts 251°
2026-05-04 22:46 21.66185 39.16635 35 ft 0 kts 250°
2026-05-04 22:48 21.66174 39.16602 35 ft 11 kts 250°
2026-05-04 22:48 21.66164 39.16489 34 ft 18 kts 297°
2026-05-04 22:48 21.66301 39.16415 34 ft 38 kts 339°
2026-05-04 22:49 21.66775 39.16230 35 ft 105 kts 340°
2026-05-04 22:49 21.67638 39.15891 31 ft 157 kts 340°
2026-05-04 22:49 21.68692 39.15487 597 ft 158 kts 340°
2026-05-04 22:49 21.69727 39.15072 1253 ft 159 kts 340°
2026-05-04 22:50 21.70810 39.14623 1610 ft 177 kts 342°
2026-05-04 22:50 21.72043 39.14138 1817 ft 202 kts 341°
2026-05-04 22:50 21.73426 39.13599 2131 ft 225 kts 341°
2026-05-04 22:50 21.74957 39.13001 2637 ft 240 kts 341°
2026-05-04 22:51 21.76558 39.12372 3262 ft 250 kts 340°
2026-05-04 22:51 21.78213 39.11720 3943 ft 256 kts 339°
2026-05-04 22:51 21.79900 39.11055 4609 ft 263 kts 339°
2026-05-04 22:51 21.81637 39.10371 5277 ft 269 kts 339°
2026-05-04 22:52 21.83416 39.09670 5805 ft 275 kts 339°
2026-05-04 22:52 21.85220 39.08958 5948 ft 275 kts 339°
2026-05-04 22:52 21.87014 39.08245 5989 ft 274 kts 339°
2026-05-04 22:52 21.88796 39.07538 5995 ft 272 kts 339°
2026-05-04 22:53 21.90571 39.06807 5995 ft 274 kts 337°
2026-05-04 22:53 21.92321 39.05999 5997 ft 273 kts 335°
2026-05-04 22:53 21.94057 39.05158 5996 ft 275 kts 335°
2026-05-04 22:53 21.95776 39.04317 5996 ft 275 kts 335°
2026-05-04 22:54 21.97537 39.03460 5994 ft 273 kts 335°
2026-05-04 22:54 21.99269 39.02621 5993 ft 272 kts 335°
2026-05-04 22:54 22.00987 39.01792 6345 ft 275 kts 334°
2026-05-04 22:54 22.02742 39.00948 7098 ft 277 kts 334°
2026-05-04 22:55 22.04516 39.00098 7827 ft 281 kts 334°
2026-05-04 22:55 22.06313 38.99239 8566 ft 284 kts 334°
2026-05-04 22:55 22.08128 38.98369 9319 ft 287 kts 334°
2026-05-04 22:55 22.09960 38.97491 10037 ft 290 kts 334°
2026-05-04 22:56 22.11858 38.96579 10347 ft 310 kts 334°
2026-05-04 22:56 22.13899 38.95596 10528 ft 332 kts 334°
2026-05-04 22:56 22.16040 38.94567 10999 ft 341 kts 334°
2026-05-04 22:56 22.18233 38.93517 11594 ft 347 kts 334°
2026-05-04 22:57 22.20457 38.92458 12201 ft 353 kts 334°
2026-05-04 22:57 22.22721 38.91380 12799 ft 358 kts 334°
2026-05-04 22:57 22.25014 38.90287 13420 ft 363 kts 334°
2026-05-04 22:57 22.27340 38.89177 13995 ft 368 kts 334°
2026-05-04 22:58 22.29692 38.88051 14581 ft 371 kts 333°
2026-05-04 22:58 22.32062 38.86916 15157 ft 374 kts 333°
2026-05-04 22:58 22.34452 38.85771 15730 ft 377 kts 333°
2026-05-04 22:58 22.36861 38.84615 16307 ft 381 kts 333°
2026-05-04 22:59 22.39297 38.83446 16878 ft 384 kts 333°
2026-05-04 22:59 22.41718 38.82282 17432 ft 388 kts 333°
2026-05-04 22:59 22.44193 38.81088 17996 ft 391 kts 333°
2026-05-04 22:59 22.46688 38.79883 18498 ft 395 kts 333°
2026-05-04 23:00 22.49207 38.78668 19015 ft 397 kts 333°
2026-05-04 23:00 22.51738 38.77448 19528 ft 399 kts 332°
2026-05-04 23:00 22.54285 38.76221 20065 ft 402 kts 332°
2026-05-04 23:00 22.56847 38.74990 20597 ft 404 kts 332°
2026-05-04 23:01 22.59422 38.73752 21134 ft 406 kts 332°
2026-05-04 23:01 22.61998 38.72510 21665 ft 408 kts 332°
2026-05-04 23:01 22.64600 38.71258 22182 ft 410 kts 332°
2026-05-04 23:01 22.67219 38.70040 22688 ft 413 kts 333°
2026-05-04 23:02 22.69905 38.68842 23177 ft 416 kts 333°
2026-05-04 23:02 22.72595 38.67669 23613 ft 419 kts 333°
2026-05-04 23:02 22.75305 38.66494 23993 ft 421 kts 333°
2026-05-04 23:02 22.78029 38.65309 24385 ft 423 kts 333°
2026-05-04 23:03 22.80771 38.64109 24769 ft 425 kts 332°
2026-05-04 23:03 22.83505 38.62899 25144 ft 427 kts 332°
2026-05-04 23:03 22.86263 38.61671 25506 ft 428 kts 332°
2026-05-04 23:03 22.89028 38.60437 25869 ft 431 kts 331°
2026-05-04 23:04 22.91805 38.59196 26224 ft 433 kts 331°
2026-05-04 23:04 22.94599 38.57948 26582 ft 434 kts 331°
2026-05-04 23:04 22.97362 38.56717 26933 ft 436 kts 331°
2026-05-04 23:04 23.00178 38.55464 27283 ft 438 kts 331°
2026-05-04 23:05 23.03008 38.54205 27631 ft 439 kts 331°
2026-05-04 23:05 23.05841 38.52946 27968 ft 441 kts 330°
2026-05-04 23:05 23.08686 38.51682 28298 ft 443 kts 330°
2026-05-04 23:05 23.11550 38.50409 28625 ft 444 kts 330°
2026-05-04 23:06 23.14416 38.49130 28938 ft 446 kts 330°
2026-05-04 23:06 23.17286 38.47845 29269 ft 447 kts 330°
2026-05-04 23:06 23.20171 38.46553 29560 ft 449 kts 330°
2026-05-04 23:06 23.23061 38.45260 29855 ft 450 kts 330°
2026-05-04 23:07 23.25918 38.43982 30093 ft 451 kts 330°
2026-05-04 23:07 23.28835 38.42678 30309 ft 453 kts 329°
2026-05-04 23:07 23.31757 38.41368 30510 ft 455 kts 329°
2026-05-04 23:07 23.34687 38.40055 30706 ft 457 kts 329°
2026-05-04 23:08 23.37637 38.38736 30901 ft 459 kts 329°
2026-05-04 23:08 23.40590 38.37416 31132 ft 459 kts 329°
2026-05-04 23:08 23.43546 38.36094 31403 ft 458 kts 329°
2026-05-04 23:08 23.46490 38.34774 31687 ft 458 kts 329°
2026-05-04 23:09 23.49437 38.33449 31945 ft 458 kts 329°
2026-05-04 23:09 23.52387 38.32121 32199 ft 458 kts 328°
2026-05-04 23:09 23.55339 38.30793 32460 ft 458 kts 328°
2026-05-04 23:09 23.58287 38.29469 32727 ft 458 kts 328°
2026-05-04 23:10 23.61237 38.28143 32983 ft 458 kts 328°
2026-05-04 23:10 23.64185 38.26817 33244 ft 458 kts 328°
2026-05-04 23:10 23.67131 38.25491 33507 ft 458 kts 328°
2026-05-04 23:10 23.70081 38.24164 33767 ft 458 kts 328°
2026-05-04 23:11 23.72990 38.22856 34004 ft 458 kts 328°
2026-05-04 23:11 23.75936 38.21529 34261 ft 458 kts 327°
2026-05-04 23:11 23.78884 38.20198 34502 ft 457 kts 327°
2026-05-04 23:11 23.81819 38.18872 34743 ft 456 kts 327°
2026-05-04 23:12 23.84758 38.17543 34948 ft 457 kts 327°
2026-05-04 23:12 23.87687 38.16217 35155 ft 456 kts 327°
2026-05-04 23:12 23.90622 38.14890 35377 ft 456 kts 327°
2026-05-04 23:12 23.93550 38.13567 35558 ft 455 kts 327°
2026-05-04 23:13 23.96474 38.12246 35741 ft 455 kts 327°
2026-05-04 23:13 23.99394 38.10924 35796 ft 453 kts 327°
2026-05-04 23:13 24.05218 38.08285 35795 ft 452 kts 327°
2026-05-04 23:14 24.10997 38.05668 35784 ft 452 kts 327°
2026-05-04 23:14 24.16562 38.02672 35781 ft 435 kts 315°
2026-05-04 23:15 24.21522 37.98945 35786 ft 434 kts 315°
2026-05-04 23:15 24.26516 37.95198 35812 ft 435 kts 315°
2026-05-04 23:16 24.31513 37.91458 35803 ft 435 kts 315°
2026-05-04 23:16 24.36508 37.87707 35850 ft 435 kts 314°
2026-05-04 23:17 24.41507 37.83943 35844 ft 435 kts 314°
2026-05-04 23:17 24.46473 37.80203 35845 ft 436 kts 315°
2026-05-04 23:18 24.51475 37.76442 35859 ft 436 kts 314°
2026-05-04 23:18 24.56477 37.72666 35857 ft 436 kts 314°
2026-05-04 23:19 24.61478 37.68885 35905 ft 436 kts 314°
2026-05-04 23:19 24.66479 37.65111 35898 ft 436 kts 314°
2026-05-04 23:20 24.71463 37.61344 35894 ft 434 kts 314°
2026-05-04 23:20 24.75592 37.58222 35911 ft 434 kts 314°
2026-05-04 23:21 24.81383 37.53836 35910 ft 434 kts 314°
2026-05-04 23:21 24.85552 37.50672 35913 ft 434 kts 314°
2026-05-04 23:22 24.90487 37.46922 35944 ft 434 kts 314°
2026-05-04 23:22 24.95486 37.43122 35938 ft 433 kts 314°
2026-05-04 23:23 25.00414 37.39376 35972 ft 433 kts 314°
2026-05-04 23:23 25.05365 37.35607 35960 ft 433 kts 314°
2026-05-04 23:24 25.10319 37.31829 35957 ft 433 kts 314°
2026-05-04 23:24 25.15282 37.28044 35961 ft 433 kts 314°
2026-05-04 23:25 25.20242 37.24253 35958 ft 433 kts 314°
2026-05-04 23:25 25.25156 37.20490 35964 ft 432 kts 314°
2026-05-04 23:26 25.30101 37.16702 35958 ft 432 kts 314°
2026-05-04 23:26 25.35036 37.12925 35943 ft 432 kts 314°
2026-05-04 23:27 25.39993 37.09123 35939 ft 432 kts 314°
2026-05-04 23:27 25.44936 37.05335 35933 ft 432 kts 314°
2026-05-04 23:28 25.49844 37.01558 35928 ft 432 kts 314°
2026-05-04 23:28 25.54788 36.97751 35946 ft 432 kts 314°
2026-05-04 23:29 25.59724 36.93949 35941 ft 432 kts 314°
2026-05-04 23:29 25.64648 36.90153 35934 ft 431 kts 314°
2026-05-04 23:30 25.69564 36.86367 35934 ft 430 kts 314°
2026-05-04 23:30 25.74480 36.82565 35935 ft 430 kts 314°
2026-05-04 23:31 25.79394 36.78759 35938 ft 431 kts 314°
2026-05-04 23:31 25.84312 36.74956 35942 ft 431 kts 314°
2026-05-04 23:32 25.89197 36.71167 35954 ft 431 kts 314°
2026-05-04 23:32 25.94115 36.67345 35949 ft 431 kts 314°
2026-05-04 23:33 25.99026 36.63542 35949 ft 429 kts 314°
2026-05-04 23:33 26.03921 36.59746 35934 ft 429 kts 314°
2026-05-04 23:34 26.08810 36.55941 35925 ft 429 kts 314°
2026-05-04 23:34 26.13662 36.52154 35928 ft 429 kts 314°
2026-05-04 23:35 26.18406 36.48230 35930 ft 418 kts 306°
2026-05-04 23:35 26.22430 36.43639 35931 ft 413 kts 304°
2026-05-04 23:36 26.26433 36.39033 35932 ft 413 kts 304°
2026-05-04 23:36 26.30433 36.34436 35945 ft 412 kts 304°
2026-05-04 23:37 26.34406 36.29850 35939 ft 411 kts 303°
2026-05-04 23:37 26.38373 36.25257 35942 ft 411 kts 303°
2026-05-04 23:38 26.42322 36.20688 35949 ft 411 kts 304°
2026-05-04 23:38 26.46291 36.16107 35943 ft 410 kts 304°
2026-05-04 23:39 26.50245 36.11533 35941 ft 409 kts 304°
2026-05-04 23:39 26.54196 36.06941 35938 ft 410 kts 304°
2026-05-04 23:40 26.58152 36.02337 35931 ft 410 kts 304°
2026-05-04 23:40 26.62094 35.97749 35931 ft 410 kts 304°
2026-05-04 23:41 26.66031 35.93187 35968 ft 410 kts 304°
2026-05-04 23:41 26.69987 35.88593 35957 ft 409 kts 303°
2026-05-04 23:42 26.73922 35.83996 35952 ft 409 kts 303°
2026-05-04 23:42 26.77850 35.79402 35946 ft 408 kts 303°
2026-05-04 23:43 26.81648 35.74966 35960 ft 408 kts 303°
2026-05-04 23:43 26.85572 35.70380 35953 ft 408 kts 303°
2026-05-04 23:44 26.89494 35.65793 35948 ft 408 kts 303°
2026-05-04 23:44 26.93408 35.61205 35943 ft 407 kts 303°
2026-05-04 23:45 26.97323 35.56618 35940 ft 407 kts 303°
2026-05-04 23:45 27.01236 35.52022 35941 ft 407 kts 303°
2026-05-04 23:46 27.05140 35.47420 35955 ft 406 kts 303°
2026-05-04 23:46 27.09013 35.42856 35949 ft 406 kts 303°
2026-05-04 23:47 27.12919 35.38263 35952 ft 407 kts 303°
2026-05-04 23:47 27.16820 35.33666 35953 ft 406 kts 303°
2026-05-04 23:48 27.20715 35.29075 35951 ft 406 kts 303°
2026-05-04 23:48 27.24591 35.24462 35935 ft 404 kts 303°
2026-05-04 23:49 27.28459 35.19892 35929 ft 403 kts 304°
2026-05-04 23:49 27.32333 35.15321 35929 ft 404 kts 304°
2026-05-04 23:50 27.36209 35.10737 35935 ft 405 kts 303°
2026-05-04 23:50 27.40081 35.06133 35935 ft 405 kts 303°
2026-05-04 23:51 27.43930 35.01553 35978 ft 406 kts 303°
2026-05-04 23:51 27.47804 34.96938 35987 ft 406 kts 303°
2026-05-04 23:52 27.51684 34.92325 35983 ft 406 kts 304°
2026-05-04 23:52 27.55777 34.87879 35977 ft 410 kts 307°
2026-05-04 23:53 27.59999 34.83545 35980 ft 410 kts 307°
2026-05-04 23:53 27.64193 34.79186 35977 ft 409 kts 307°
2026-05-04 23:54 27.68347 34.74797 35975 ft 409 kts 307°
2026-05-04 23:54 27.72485 34.70397 35989 ft 409 kts 307°
2026-05-04 23:55 27.76622 34.66004 36023 ft 408 kts 307°
2026-05-04 23:56 27.82809 34.59426 35982 ft 407 kts 307°
2026-05-04 23:56 27.86929 34.55041 35981 ft 407 kts 307°
2026-05-04 23:57 27.91056 34.50647 35982 ft 407 kts 307°
2026-05-04 23:57 27.95182 34.46254 35986 ft 407 kts 307°
2026-05-04 23:58 27.99304 34.41856 35982 ft 406 kts 306°
2026-05-04 23:58 28.02907 34.37053 35979 ft 399 kts 300°
2026-05-04 23:59 28.06420 34.32192 35982 ft 399 kts 301°
2026-05-04 23:59 28.09906 34.27366 35983 ft 399 kts 300°
2026-05-05 00:00 28.13418 34.22499 36055 ft 399 kts 300°
2026-05-05 00:00 28.16917 34.17651 36034 ft 395 kts 301°
2026-05-05 00:01 28.20400 34.12821 36028 ft 395 kts 300°
2026-05-05 00:01 28.23871 34.07990 36033 ft 395 kts 300°
2026-05-05 00:02 28.27320 34.03189 36021 ft 394 kts 300°
2026-05-05 00:02 28.30784 33.98357 36018 ft 396 kts 300°
2026-05-05 00:03 28.34253 33.93510 36055 ft 396 kts 300°
2026-05-05 00:03 28.37730 33.88664 36062 ft 396 kts 300°
2026-05-05 00:04 28.41196 33.83822 36057 ft 394 kts 300°
2026-05-05 00:04 28.44646 33.78991 36051 ft 394 kts 300°
2026-05-05 00:05 28.48094 33.74157 36037 ft 393 kts 300°
2026-05-05 00:05 28.51524 33.69327 36035 ft 393 kts 300°
2026-05-05 00:06 28.54970 33.64476 36066 ft 393 kts 300°
2026-05-05 00:06 28.58420 33.59649 36064 ft 393 kts 300°
2026-05-05 00:07 28.61865 33.54831 36057 ft 393 kts 300°
2026-05-05 00:07 28.65313 33.50004 36054 ft 393 kts 300°
2026-05-05 00:08 28.68748 33.45158 36053 ft 393 kts 300°
2026-05-05 00:08 28.71588 33.41132 36063 ft 393 kts 300°
2026-05-05 00:09 28.75017 33.36277 36057 ft 392 kts 300°
2026-05-05 00:09 28.78997 33.30643 36055 ft 393 kts 300°
2026-05-05 00:10 28.81866 33.26578 36058 ft 393 kts 300°
2026-05-05 00:10 28.85266 33.21759 36061 ft 393 kts 300°
2026-05-05 00:11 28.88686 33.16896 36069 ft 393 kts 300°
2026-05-05 00:11 28.92103 33.12027 36081 ft 393 kts 300°
2026-05-05 00:12 28.95523 33.07167 36077 ft 392 kts 300°
2026-05-05 00:12 28.98932 33.02308 36074 ft 392 kts 300°
2026-05-05 00:13 29.02355 32.97437 36082 ft 392 kts 300°
2026-05-05 00:13 29.05769 32.92570 36083 ft 392 kts 300°
2026-05-05 00:14 29.09173 32.87694 36105 ft 392 kts 300°
2026-05-05 00:14 29.12570 32.82829 36107 ft 391 kts 300°
2026-05-05 00:15 29.15959 32.77962 36106 ft 390 kts 300°
2026-05-05 00:15 29.19336 32.73112 36100 ft 390 kts 300°
2026-05-05 00:16 29.22696 32.68291 36100 ft 389 kts 300°
2026-05-05 00:16 29.26068 32.63448 36097 ft 389 kts 300°
2026-05-05 00:17 29.29439 32.58601 36108 ft 389 kts 300°
2026-05-05 00:17 29.32783 32.53735 36100 ft 389 kts 300°
2026-05-05 00:18 29.36110 32.48858 35262 ft 387 kts 300°
2026-05-05 00:18 29.37789 32.46398 33541 ft 394 kts 300°
2026-05-05 00:18 29.39480 32.43929 31732 ft 390 kts 301°
2026-05-05 00:18 29.41148 32.41503 30107 ft 384 kts 301°
2026-05-05 00:19 29.42767 32.39157 28648 ft 372 kts 301°
2026-05-05 00:19 29.44308 32.36946 28408 ft 345 kts 301°
2026-05-05 00:19 29.45780 32.34807 27976 ft 339 kts 300°
2026-05-05 00:19 29.47223 32.32684 27538 ft 335 kts 300°
2026-05-05 00:20 29.48645 32.30583 27114 ft 331 kts 300°
2026-05-05 00:20 29.50052 32.28509 26711 ft 327 kts 301°
2026-05-05 00:20 29.51441 32.26464 26309 ft 323 kts 301°
2026-05-05 00:20 29.52816 32.24445 25924 ft 319 kts 301°
2026-05-05 00:21 29.54171 32.22453 25543 ft 315 kts 300°
2026-05-05 00:21 29.55517 32.20476 25169 ft 313 kts 301°
2026-05-05 00:21 29.56852 32.18513 24802 ft 311 kts 301°
2026-05-05 00:21 29.58183 32.16557 24435 ft 310 kts 301°
2026-05-05 00:22 29.59509 32.14609 24061 ft 309 kts 301°
2026-05-05 00:22 29.60830 32.12667 23689 ft 308 kts 301°
2026-05-05 00:22 29.62148 32.10729 23268 ft 307 kts 301°
2026-05-05 00:22 29.63457 32.08801 22886 ft 305 kts 301°
2026-05-05 00:23 29.64757 32.06884 22522 ft 304 kts 302°
2026-05-05 00:23 29.66056 32.04972 22136 ft 303 kts 302°
2026-05-05 00:23 29.67351 32.03065 21753 ft 301 kts 302°
2026-05-05 00:23 29.68638 32.01172 21376 ft 300 kts 302°
2026-05-05 00:24 29.69901 31.99311 20989 ft 298 kts 302°
2026-05-05 00:24 29.71174 31.97432 20609 ft 297 kts 302°
2026-05-05 00:24 29.72438 31.95564 20226 ft 295 kts 302°
2026-05-05 00:24 29.73697 31.93705 19845 ft 293 kts 302°
2026-05-05 00:25 29.74948 31.91858 19490 ft 292 kts 302°
2026-05-05 00:25 29.76196 31.90015 19092 ft 291 kts 302°
2026-05-05 00:25 29.77438 31.88176 18700 ft 290 kts 302°
2026-05-05 00:25 29.78673 31.86346 18304 ft 289 kts 302°
2026-05-05 00:26 29.79884 31.84495 17836 ft 289 kts 301°
2026-05-05 00:26 29.81074 31.82632 17398 ft 288 kts 301°
2026-05-05 00:26 29.82251 31.80775 16975 ft 287 kts 301°
2026-05-05 00:26 29.83412 31.78945 16560 ft 286 kts 301°
2026-05-05 00:27 29.84589 31.77099 16139 ft 286 kts 302°
2026-05-05 00:27 29.85766 31.75257 15725 ft 285 kts 302°
2026-05-05 00:27 29.86945 31.73417 15334 ft 285 kts 302°
2026-05-05 00:27 29.88116 31.71588 14958 ft 283 kts 302°
2026-05-05 00:28 29.89284 31.69768 14598 ft 281 kts 302°
2026-05-05 00:28 29.90447 31.67957 14207 ft 281 kts 302°
2026-05-05 00:28 29.91725 31.66252 13919 ft 281 kts 315°
2026-05-05 00:28 29.93412 31.65131 13125 ft 284 kts 335°
2026-05-05 00:29 29.95341 31.64595 12117 ft 285 kts 341°
2026-05-05 00:29 29.97279 31.64153 11164 ft 282 kts 343°
2026-05-05 00:29 29.99193 31.63768 10236 ft 278 kts 343°
2026-05-05 00:29 30.01072 31.63395 9184 ft 276 kts 344°
2026-05-05 00:30 30.02952 31.63019 8214 ft 272 kts 345°
2026-05-05 00:30 30.04818 31.62636 7239 ft 267 kts 345°
2026-05-05 00:30 30.06614 31.62253 6264 ft 264 kts 345°
2026-05-05 00:30 30.08403 31.61869 5302 ft 259 kts 347°
2026-05-05 00:31 30.10151 31.61499 4524 ft 247 kts 347°
2026-05-05 00:31 30.11759 31.61144 4192 ft 224 kts 347°
2026-05-05 00:31 30.13249 31.60809 4087 ft 212 kts 347°
2026-05-05 00:31 30.14664 31.60489 3987 ft 201 kts 347°
2026-05-05 00:32 30.15982 31.60192 3887 ft 187 kts 346°
2026-05-05 00:32 30.17249 31.59908 3831 ft 184 kts 347°
2026-05-05 00:32 30.18457 31.59638 3760 ft 171 kts 346°
2026-05-05 00:32 30.19522 31.59202 3656 ft 156 kts 324°
2026-05-05 00:33 30.20206 31.58327 3583 ft 143 kts 298°
2026-05-05 00:33 30.20467 31.57221 3469 ft 146 kts 275°
2026-05-05 00:33 30.20255 31.56073 3173 ft 149 kts 248°
2026-05-05 00:33 30.19608 31.55133 2840 ft 154 kts 235°
2026-05-05 00:34 30.18909 31.54190 2576 ft 150 kts 235°
2026-05-05 00:34 30.18230 31.53276 2351 ft 149 kts 234°
2026-05-05 00:34 30.17555 31.52371 2135 ft 148 kts 234°
2026-05-05 00:34 30.16881 31.51469 1939 ft 149 kts 235°
2026-05-05 00:35 30.16206 31.50568 1735 ft 148 kts 234°
2026-05-05 00:35 30.15534 31.49670 1528 ft 148 kts 234°
2026-05-05 00:35 30.14864 31.48774 1330 ft 147 kts 233°
2026-05-05 00:35 30.14205 31.47895 1137 ft 146 kts 233°
2026-05-05 00:36 30.13544 31.47014 946 ft 145 kts 232°
2026-05-05 00:36 30.12893 31.46127 726 ft 145 kts 231°
2026-05-05 00:36 30.12236 31.45253 474 ft 143 kts 231°
2026-05-05 00:36 30.11606 31.44405 376 ft 125 kts 231°
2026-05-05 00:37 30.11142 31.43800 374 ft 76 kts 227°
2026-05-05 00:37 30.10898 31.43478 374 ft 40 kts 229°
2026-05-05 00:37 30.10728 31.43251 374 ft 35 kts 230°
2026-05-05 00:37 30.10587 31.43046 374 ft 31 kts 238°
2026-05-05 00:38 30.10508 31.42836 374 ft 27 kts 253°
2026-05-05 00:38 30.10468 31.42674 374 ft 18 kts 253°
2026-05-05 00:38 30.10424 31.42552 374 ft 15 kts 237°
2026-05-05 00:38 30.10361 31.42463 374 ft 14 kts 229°
2026-05-05 00:39 30.10272 31.42347 374 ft 24 kts 229°
2026-05-05 00:39 30.10157 31.42192 374 ft 26 kts 230°
2026-05-05 00:39 30.10042 31.42032 374 ft 23 kts 238°
2026-05-05 00:39 30.10025 31.41861 374 ft 22 kts 240°
2026-05-05 00:40 30.09935 31.41713 374 ft 23 kts 251°
2026-05-05 00:40 30.09899 31.41523 374 ft 25 kts 259°
2026-05-05 00:40 30.09868 31.41322 374 ft 26 kts 259°
2026-05-05 00:40 30.09834 31.41107 374 ft 28 kts 260°
2026-05-05 00:41 30.09796 31.40884 374 ft 29 kts 259°
2026-05-05 00:41 30.09845 31.40702 374 ft 25 kts 319°
2026-05-05 00:41 30.09983 31.40565 374 ft 27 kts 319°
2026-05-05 00:41 30.10128 31.40421 374 ft 28 kts 319°
2026-05-05 00:42 30.10258 31.40293 374 ft 22 kts 321°
2026-05-05 00:42 30.10379 31.40170 374 ft 20 kts 318°
2026-05-05 00:42 30.10501 31.40144 374 ft 20 kts 38°
2026-05-05 00:42 30.10600 31.40269 374 ft 22 kts 48°
2026-05-05 00:43 30.10714 31.40306 374 ft 16 kts 353°
2026-05-05 00:43 30.10806 31.40381 374 ft 18 kts 48°
2026-05-05 00:43 30.10890 31.40493 374 ft 19 kts 49°
2026-05-05 00:43 30.10982 31.40614 374 ft 15 kts 44°
2026-05-05 00:44 30.11064 31.40591 374 ft 15 kts 319°
2026-05-05 00:44 30.11159 31.40495 374 ft 20 kts 319°
2026-05-05 00:44 30.11223 31.40412 374 ft 3 kts 280°
2026-05-05 00:44 30.11218 31.40388 374 ft 5 kts 240°
2026-05-05 00:45 30.11198 31.40361 374 ft 3 kts 227°
2026-05-05 00:45 30.11191 31.40355 374 ft 0 kts 225°